Regional Weather Roundup
Issued by NWS

Home | Current Version | Previous Version | Graphics & Text | Print | Product List | Glossary On
Versions: 1 2 3 4 5 6 7 8 9 10 11 12 13 14 15 16 17 18 19 20 21 22 23 24 25 26 27 28 29 30 31 32 33 34 35 36 37 38 39 40 41 42 43 44 45 46 47 48 49 50
000
ASUS45 KSLC 211110
RWRUT

UTAH REGIONAL WEATHER ROUNDUP
NATIONAL WEATHER SERVICE SALT LAKE CITY UT
500 AM MDT MON AUG 21 2017

UTZ001>011-023>025-211200-

NORTHERN UTAH

CITY           SKY/WX    TMP DP  RH WIND       PRES   REMARKS
BRIGHAM CITY   CLEAR     64  45  50 CALM      30.07S
DUGWAY         PTCLDY    60  37  43 E3        30.06
HILL AFB       PTCLDY    68  37  31 E16       30.09S
LOGAN          CLEAR     60  46  59 CALM      30.10R
OGDEN          PTCLDY    67  38  34 S10       30.06S
SALT LAKE CITY PTCLDY    69  44  40 SE8       30.06R
TOOELE VALLEY  PTCLDY    68  41  37 CALM      30.07S
WENDOVER       NOT AVBL
HEBER CITY     CLEAR     50  39  66 CALM      30.19R
WEST JORDAN    PTCLDY    67  48  50 S6        30.10R

$$

UTZ011>015-024>027-211200-

CENTRAL/NORTHEAST UTAH

CITY           SKY/WX    TMP DP  RH WIND       PRES   REMARKS
PROVO AIRPORT  CLEAR     62  43  49 SE5       30.11S
MOAB/CANYONLAN MOCLDY    74  39  28 CALM      30.07R
DELTA          CLEAR     63  39  42 E3        30.12R
PRICE          MOCLDY    63  41  44 CALM      30.17F
RICHFIELD      CLEAR     57  46  67 CALM      30.19S
ROOSEVELT      PTCLDY    64  43  45 W10       30.15F
VERNAL         CLOUDY    64  43  46 CALM      30.14S

$$

UTZ013>016-019>022-027-211200-

SOUTHERN UTAH

CITY           SKY/WX    TMP DP  RH WIND       PRES   REMARKS
BRYCE CANYON   CLOUDY    54  47  77 CALM      30.34S
CEDAR CITY     MOCLDY    63  47  55 S7        30.19S
MILFORD        PTCLDY    64  47  53 SW12      30.14R
ST GEORGE      SUNNY     74  50  42 SE9       30.04R
HANKSVILLE     MOCLDY    70  37  30 S3        30.08F
KANAB          CLEAR     68  48  49 NE2       30.20S
BLANDING       PTCLDY    57  47  69 N3        30.28S

$$

REGIONAL REPORTS     COLORADO/ARIZONA

CITY           SKY/WX    TMP DP  RH WIND       PRES   REMARKS
CRAIG, CO      CLOUDY    44  38  79 CALM      30.24R
GRAND JUNCTION CLOUDY    67  37  33 E7        30.10R
RIFLE, CO      CLOUDY    58  38  47 E5        30.17S
MONTROSE, CO   PTCLDY    64  41  42 SE7       30.20R
CORTEZ, CO     CLOUDY    59  51  75 CALM      30.22S
COLORADO CITY  CLOUDY    63  52  67 NE5       30.20S
PAGE, AZ       MOCLDY    76  46  34 SW3       30.08R
GRAND CANYON   LGT RAIN  57  55  93 NE5       30.27F
KINGMAN, AZ    CLOUDY    77  52  41 SE10      30.05S
FLAGSTAFF, AZ  CLOUDY    54  50  86 CALM      30.28F

$$

REGIONAL REPORTS    NEVADA/IDAHO/WYOMING

CITY           SKY/WX    TMP DP  RH WIND       PRES   REMARKS
LAS VEGAS, NV  CLOUDY    87  51  28 W14       29.92F
ELY, NY        CLEAR     54  32  43 S10       30.21S
ELKO, NV       PTCLDY    60  33  36 CALM      30.14R
POCATELLO, ID  CLOUDY    60  29  30 S12       30.13S
BURLEY, ID     CLEAR     51  41  68 CALM      30.09S
FORT BRIDGER,    N/A     59  31  34 W8        30.29S
EVANSTON, WY   CLOUDY    53  33  46 S8        30.27S
ROCK SPRINGS,  CLEAR     60  36  40 CALM      30.24S
KEMMERER, WY     N/A     46  32  57 N15       30.29R

$$



USA.gov is the U.S. government's official web portal to all federal, state and local government web resources and services.